Latest Weather Observations for Bega

IDN60801

Issued at 8:35 pm EDT Thursday 23 October 2014 (issued every 30 minutes, with the page automatically refreshed every 10 minutes)

About weather observations | Map of weather stations | Latest weather observations for NSW | Other Formats
Station Details ID: 069139 Name: BEGA AWS Lat: -36.67 Lon: 149.82 Height: 41.0 m
Data from the previous 72 hours. | See also: Recent months at Bega
Date/Time
EDT
Temp
°C
App
Temp
°C
Dew
Point
Rel
Hum
%
Delta-T
°C
Wind Press
QNH
hPa
Press
MSL
hPa
Rain
since 9 am
mm
Dir
 
Spd
km/h
Gust
km/h
Spd
kts
Gust
kts
23/08:30pm 16.7 15.9 16.2 97 0.3 NNE 15 19 8 10 1020.1 1020.0 0.4
23/08:00pm 16.6 16.1 16.0 96 0.4 S 13 17 7 9 1020.6 1020.5 0.0
23/07:30pm 16.6 16.1 15.8 95 0.5 N 13 19 7 10 1019.5 1019.4 0.0
23/07:00pm 16.8 17.4 15.8 94 0.6 E 7 11 4 6 1019.6 1019.5 0.0
23/06:30pm 17.2 17.5 15.9 92 0.8 S 9 13 5 7 1019.4 1019.3 0.0
23/06:00pm 17.3 17.5 15.8 91 0.9 S 9 20 5 11 1019.2 1019.1 0.0
23/05:30pm 17.8 16.2 16.0 89 1.1 SE 19 30 10 16 1018.5 1018.4 0.0
23/05:00pm 18.9 18.3 15.6 81 1.9 SE 13 17 7 9 1019.5 1019.4 0.0
23/04:30pm 19.9 20.0 15.5 76 2.6 SSE 9 13 5 7 1019.0 1018.9 0.0
23/04:00pm 21.2 20.5 15.5 70 3.4 S 13 19 7 10 1018.4 1018.3 0.0
23/03:30pm 23.2 20.8 14.5 58 5.1 ESE 20 28 11 15 1017.8 1017.7 0.0
23/03:00pm 25.2 22.3 14.0 49 6.6 SE 22 33 12 18 1017.4 1017.3 0.0
23/02:30pm 25.9 24.2 16.2 55 6.0 E 20 28 11 15 1017.4 1017.3 0.0
23/02:00pm 26.0 24.2 16.0 54 6.1 E 20 28 11 15 1017.6 1017.5 0.0
23/01:30pm 26.0 24.3 15.7 53 6.3 ESE 19 26 10 14 1017.6 1017.5 0.0
23/01:00pm 26.6 25.0 15.0 49 7.0 ESE 17 26 9 14 1017.8 1017.7 0.0
23/12:30pm 25.8 24.3 14.3 49 6.8 ESE 15 26 8 14 1017.9 1017.8 0.0
23/12:00pm 25.0 23.6 14.5 52 6.2 E 15 22 8 12 1018.1 1018.0 0.0
23/11:30am 24.3 25.0 17.1 64 4.5 E 9 15 5 8 1018.3 1018.2 0.0
23/11:00am 21.6 23.5 16.8 74 2.9 SSW 2 9 1 5 1018.5 1018.4 0.0
23/10:30am 20.3 20.9 15.9 76 2.6 S 7 9 4 5 1018.2 1018.1 0.0
23/10:00am 19.9 21.8 15.7 77 2.5 CALM 0 6 0 3 1018.0 1017.9 0.0
23/09:30am 19.2 19.9 15.5 79 2.2 SSE 6 9 3 5 1017.9 1017.8 0.0
23/09:00am 19.4 20.5 15.5 78 2.3 NW 4 7 2 4 1017.7 1017.6 0.0
23/08:30am 16.1 16.8 14.6 91 0.9 N 4 9 2 5 1017.8 1017.7 0.0
23/08:00am 14.5 15.0 14.0 97 0.3 S 4 9 2 5 1018.3 1018.2 0.0
23/07:30am 12.8 13.6 12.6 99 0.1 CALM 0 2 0 1 1017.9 1017.8 0.0
23/07:00am 11.6 11.3 11.4 99 0.1 S 4 7 2 4 1017.6 1017.5 0.0
23/06:30am 10.8 10.6 10.6 99 0.1 S 2 7 1 4 1017.3 1017.2 0.0
23/06:00am 11.7 12.2 11.5 99 0.1 CALM 0 0 0 0 1017.2 1017.1 0.0
23/05:30am 11.3 11.7 11.1 99 0.1 CALM 0 0 0 0 1017.1 1017.0 0.0
23/05:00am 12.0 12.6 11.8 99 0.1 CALM 0 0 0 0 1016.9 1016.8 0.0
23/04:30am 11.9 12.1 11.7 99 0.1 N 2 6 1 3 1016.7 1016.6 0.0
23/04:00am 11.6 12.0 11.4 99 0.1 CALM 0 0 0 0 1016.7 1016.6 0.0
23/03:30am 11.8 11.5 11.6 99 0.1 SW 4 9 2 5 1016.7 1016.6 0.0
23/03:00am 11.9 12.4 11.7 99 0.1 CALM 0 0 0 0 1016.8 1016.7 0.0
23/02:30am 11.8 12.3 11.6 99 0.1 CALM 0 0 0 0 1017.2 1017.1 0.0
23/02:00am 11.7 12.2 11.5 99 0.1 CALM 0 0 0 0 1017.4 1017.3 0.0
23/01:30am 11.4 11.7 10.9 97 0.3 W 0 0 0 0 1017.9 1017.8 0.0
23/01:00am 12.5 13.2 12.2 98 0.2 CALM 0 0 0 0 1018.2 1018.1 0.0
23/12:30am 12.4 13.1 12.1 98 0.2 CALM 0 0 0 0 1018.4 1018.3 0.0
23/12:00am 12.3 12.9 11.8 97 0.3 SE 0 6 0 3 1018.5 1018.4 0.0
 
Date/Time
EDT
Temp
°C
App
Temp
°C
Dew
Point
Rel
Hum
%
Delta-T
°C
Wind Press
QNH
hPa
Press
MSL
hPa
Rain
since 9 am
mm
Dir
 
Spd
km/h
Gust
km/h
Spd
kts
Gust
kts
22/11:30pm 12.5 11.7 11.7 95 0.4 S 7 11 4 6 1018.7 1018.6 0.0
22/11:00pm 13.9 14.8 12.8 93 0.6 CALM 0 0 0 0 1018.8 1018.7 0.0
22/10:30pm 14.0 14.8 12.7 92 0.7 CALM 0 0 0 0 1019.1 1019.0 0.0
22/10:00pm 14.6 15.5 12.8 89 1.0 CALM 0 0 0 0 1019.3 1019.2 0.0
22/09:30pm 15.3 16.3 13.1 87 1.2 CALM 0 0 0 0 1019.2 1019.1 0.0
22/09:00pm 16.3 17.2 12.8 80 1.9 CALM 0 0 0 0 1019.2 1019.1 0.0
22/08:30pm 17.1 16.9 13.0 77 2.3 NE 6 9 3 5 1018.9 1018.8 0.0
22/08:00pm 17.5 16.8 13.2 76 2.4 NE 9 11 5 6 1018.6 1018.5 0.0
22/07:30pm 18.2 17.8 13.1 72 2.9 N 7 11 4 6 1018.6 1018.5 0.0
22/07:00pm 18.9 17.5 13.3 70 3.2 NE 13 15 7 8 1018.4 1018.3 0.0
22/06:30pm 19.9 18.8 13.1 65 3.9 NE 11 15 6 8 1018.3 1018.2 0.0
22/06:00pm 20.8 19.4 13.3 62 4.3 E 13 17 7 9 1018.1 1018.0 0.0
22/05:30pm 21.7 20.5 14.1 62 4.4 ENE 13 17 7 9 1017.9 1017.8 0.0
22/05:00pm 22.3 21.2 14.2 60 4.7 ENE 13 19 7 10 1018.0 1017.9 0.0
22/04:30pm 22.7 21.0 13.7 56 5.2 ENE 15 20 8 11 1018.0 1017.9 0.0
22/04:00pm 23.0 21.0 13.8 56 5.4 E 17 20 9 11 1018.3 1018.2 0.0
22/03:30pm 23.1 20.9 13.3 54 5.7 E 17 20 9 11 1018.6 1018.5 0.0
22/03:00pm 23.8 22.7 14.2 55 5.7 NE 13 19 7 10 1018.7 1018.6 0.0
22/02:30pm 24.4 23.6 13.9 52 6.2 NE 11 19 6 10 1019.1 1019.0 0.0
22/02:00pm 23.4 22.5 12.7 51 6.1 ENE 9 15 5 8 1019.7 1019.6 0.0
22/01:30pm 23.2 21.8 13.4 54 5.7 NE 13 20 7 11 1020.1 1020.0 0.0
22/01:00pm 22.9 21.2 12.5 52 5.9 NE 13 19 7 10 1020.7 1020.6 0.0
22/12:30pm 21.7 20.1 11.7 53 5.6 ENE 11 17 6 9 1021.2 1021.1 0.0
22/12:00pm 21.6 19.9 11.3 52 5.7 NE 11 17 6 9 1021.9 1021.8 0.0
22/11:30am 20.5 18.2 10.6 53 5.4 NNE 13 19 7 10 1022.6 1022.6 0.0
22/11:00am 19.8 16.6 10.0 53 5.2 N 17 22 9 12 1023.3 1023.3 0.0
22/10:30am 19.6 16.0 10.0 54 5.1 N 19 26 10 14 1023.6 1023.6 0.0
22/10:00am 18.5 14.8 9.3 55 4.8 N 19 26 10 14 1024.2 1024.2 0.0
22/09:30am 17.3 12.5 9.0 58 4.3 NNE 24 32 13 17 1024.4 1024.4 0.0
22/09:00am 16.5 12.0 8.5 59 4.1 N 22 35 12 19 1024.4 1024.4 0.0
22/08:30am 14.5 13.2 10.1 75 2.3 SE 7 11 4 6 1024.8 1024.8 0.0
22/08:00am 11.6 9.8 9.5 87 1.1 S 9 11 5 6 1025.0 1025.0 0.0
22/07:30am 9.7 8.0 8.3 91 0.7 S 7 7 4 4 1025.2 1025.2 0.0
22/07:00am 7.7 5.6 6.8 94 0.4 S 7 9 4 5 1025.2 1025.2 0.0
22/06:30am 7.5 6.7 6.6 94 0.4 CALM 0 0 0 0 1025.2 1025.2 0.0
22/06:00am 7.8 7.0 6.7 93 0.5 CALM 0 6 0 3 1025.2 1025.2 0.0
22/05:30am 8.7 8.1 7.5 92 0.6 CALM 0 0 0 0 1025.1 1025.1 0.0
22/05:00am 8.8 8.2 7.3 90 0.7 CALM 0 0 0 0 1025.2 1025.2 0.0
22/04:30am 10.7 9.6 8.3 85 1.2 N 4 9 2 5 1025.6 1025.6 0.0
22/04:00am 10.6 8.8 7.8 83 1.3 N 7 11 4 6 1025.7 1025.7 0.0
22/03:30am 10.9 8.7 8.0 82 1.4 N 9 13 5 7 1026.1 1026.1 0.0
22/03:00am 10.7 9.1 8.1 84 1.3 NNW 6 11 3 6 1026.6 1026.6 0.0
22/02:30am 11.2 9.1 8.1 81 1.5 N 9 19 5 10 1027.0 1027.0 0.0
22/02:00am 11.6 9.5 8.3 80 1.6 N 9 13 5 7 1027.6 1027.6 0.0
22/01:30am 11.1 10.3 8.3 83 1.4 N 2 7 1 4 1028.0 1028.0 0.0
22/01:00am 11.7 9.6 8.2 79 1.7 N 9 15 5 8 1028.3 1028.3 0.0
22/12:30am 11.3 10.9 8.3 82 1.5 CALM 0 0 0 0 1028.9 1028.9 0.0
22/12:00am 12.6 10.1 8.3 75 2.1 N 11 15 6 8 1029.3 1029.3 0.0
 
Date/Time
EDT
Temp
°C
App
Temp
°C
Dew
Point
Rel
Hum
%
Delta-T
°C
Wind Press
QNH
hPa
Press
MSL
hPa
Rain
since 9 am
mm
Dir
 
Spd
km/h
Gust
km/h
Spd
kts
Gust
kts
21/11:30pm 13.2 10.4 8.5 73 2.3 N 13 17 7 9 1029.5 1029.5 0.0
21/11:00pm 13.4 10.3 8.7 73 2.3 N 15 19 8 10 1029.8 1029.8 0.0
21/10:30pm 13.8 11.1 8.8 72 2.5 N 13 20 7 11 1029.9 1029.9 0.0
21/10:00pm 14.2 11.8 8.8 70 2.7 N 11 15 6 8 1030.0 1030.0 0.0
21/09:30pm 14.7 12.0 9.1 69 2.9 N 13 20 7 11 1030.1 1030.1 0.0
21/09:00pm 14.9 12.8 9.7 71 2.7 N 11 15 6 8 1030.1 1030.1 0.0
21/08:30pm 14.8 13.1 9.8 72 2.6 N 9 11 5 6 1030.1 1030.1 0.0
21/08:00pm 15.0 12.6 10.0 72 2.6 NNE 13 17 7 9 1029.8 1029.8 0.0
21/07:30pm 15.4 11.8 9.7 69 3.0 NE 19 24 10 13 1029.4 1029.4 0.0
21/07:00pm 15.7 11.5 9.8 68 3.1 NE 22 30 12 16 1029.1 1029.1 0.0
21/06:30pm 15.8 12.4 10.6 71 2.8 NE 19 26 10 14 1029.2 1029.2 0.0
21/06:00pm 16.1 12.4 10.2 68 3.1 NE 20 28 11 15 1029.2 1029.2 0.0
21/05:30pm 16.3 11.8 9.9 66 3.4 NE 24 35 13 19 1029.2 1029.2 0.0
21/05:00pm 16.4 11.5 9.8 65 3.4 NE 26 35 14 19 1029.1 1029.1 0.0
21/04:30pm 16.7 12.2 9.9 64 3.6 NE 24 32 13 17 1029.0 1029.0 0.0
21/04:00pm 17.1 12.3 9.0 59 4.2 NE 24 30 13 16 1029.2 1029.2 0.0
21/03:30pm 17.1 11.9 9.0 59 4.2 NE 26 32 14 17 1029.7 1029.7 0.0
21/03:00pm 17.2 12.8 9.1 59 4.2 NE 22 30 12 16 1030.0 1030.0 0.0
21/02:30pm 17.2 13.2 8.9 58 4.3 NE 20 26 11 14 1030.5 1030.5 0.0
21/02:00pm 17.0 12.9 7.9 55 4.6 NE 19 26 10 14 1031.1 1031.1 0.0
21/01:30pm 16.8 12.2 8.2 57 4.4 NE 22 30 12 16 1031.5 1031.5 0.0
21/01:00pm 17.3 13.2 8.7 57 4.4 NE 20 26 11 14 1031.8 1031.8 0.0
21/12:30pm 16.8 11.8 8.2 57 4.4 NE 24 33 13 18 1032.0 1032.0 0.0
21/12:00pm 17.0 12.7 7.9 55 4.6 NNE 20 28 11 15 1032.5 1032.5 0.0
21/11:30am 16.6 12.2 7.5 55 4.6 NE 20 28 11 15 1032.7 1032.7 0.0
21/11:00am 16.2 12.1 7.9 58 4.1 NE 19 28 10 15 1033.0 1033.0 0.0
21/10:30am 16.1 14.0 8.3 60 4.0 NE 9 17 5 9 1033.4 1033.4 0.0
21/10:00am 15.2 13.8 9.6 69 2.9 NE 7 11 4 6 1033.5 1033.5 0.0
21/09:30am 14.4 13.6 9.8 74 2.4 ENE 4 9 2 5 1033.5 1033.5 0.0
21/09:00am 13.6 13.4 10.4 81 1.7 ESE 2 6 1 3 1033.4 1033.4 0.0
21/08:30am 13.0 12.8 10.5 85 1.3 NE 2 6 1 3 1033.3 1033.3 0.0
21/08:00am 12.5 12.3 10.6 88 1.0 NNE 2 7 1 4 1033.0 1033.0 0.0
21/07:30am 11.9 12.1 10.6 92 0.7 CALM 0 0 0 0 1032.8 1032.8 0.0
21/07:00am 11.4 11.6 10.5 94 0.5 CALM 0 0 0 0 1032.6 1032.6 0.0
21/06:30am 11.2 11.3 10.1 93 0.6 CALM 0 0 0 0 1032.5 1032.5 0.0
21/06:00am 11.1 11.1 9.9 92 0.6 CALM 0 0 0 0 1032.2 1032.2 0.0
21/05:30am 11.2 11.3 10.3 94 0.5 CALM 0 0 0 0 1032.1 1032.1 0.0
21/05:00am 11.2 11.3 10.1 93 0.6 CALM 0 0 0 0 1032.1 1032.1 0.0
21/04:30am 11.2 10.5 9.9 92 0.7 W 4 7 2 4 1032.1 1032.1 0.0
21/04:00am 11.5 11.6 10.1 91 0.7 CALM 0 0 0 0 1032.2 1032.2 0.0
21/03:30am 11.6 11.6 9.7 88 1.0 CALM 0 0 0 0 1032.4 1032.4 0.0
21/03:00am 11.7 11.7 9.8 88 1.0 CALM 0 0 0 0 1032.7 1032.7 0.0
21/02:30am 11.8 11.8 9.9 88 1.0 CALM 0 0 0 0 1032.8 1032.8 0.0
21/02:00am 11.9 12.0 10.0 88 1.0 CALM 0 0 0 0 1033.0 1033.0 0.0
21/01:30am 12.1 12.1 9.8 86 1.2 CALM 0 0 0 0 1033.1 1033.1 0.0
21/01:00am 12.1 12.0 9.3 83 1.4 CALM 0 0 0 0 1033.3 1033.3 0.0
21/12:30am 12.4 12.4 9.8 84 1.3 CALM 0 0 0 0 1033.5 1033.5 0.0
21/12:00am 12.3 12.2 9.3 82 1.5 CALM 0 0 0 0 1033.6 1033.6 0.0
 
Date/Time
EDT
Temp
°C
App
Temp
°C
Dew
Point
Rel
Hum
%
Delta-T
°C
Wind Press
QNH
hPa
Press
MSL
hPa
Rain
since 9 am
mm
Dir
 
Spd
km/h
Gust
km/h
Spd
kts
Gust
kts
20/11:30pm 12.5 12.5 9.7 83 1.4 CALM 0 0 0 0 1033.7 1033.7 0.0
20/11:00pm 12.7 12.7 9.7 82 1.5 CALM 0 0 0 0 1033.6 1033.6 0.0
20/10:30pm 12.7 12.0 8.4 75 2.1 NW 2 9 1 5 1033.6 1033.6 0.0
20/10:00pm 13.0 12.5 7.9 71 2.5 CALM 0 0 0 0 1033.8 1033.8 0.0
20/09:30pm 13.2 12.6 7.6 69 2.7 CALM 0 0 0 0 1033.8 1033.8 0.0
20/09:00pm 13.1 12.3 8.0 71 2.5 N 2 6 1 3 1033.7 1033.7 0.0

Other Formats:

Comma delimited format used in spreadsheet applications
http://www.bom.gov.au/fwo/IDN60801/IDN60801.95931.axf

JavaScript Object Notation format (JSON) in row-major order
http://www.bom.gov.au/fwo/IDN60801/IDN60801.95931.json